owner,sensor,date,latitude,longitude,air_pressure(mBar),qcFlag 
TABS,ioos:station:wmo:42043:1,2006-03-01T00:00:00Z,28.9818,-94.9186,1016.15,11111222 
TABS,ioos:station:wmo:42043:1,2006-03-01T00:30:00Z,28.9818,-94.9186,1016.31,11111222 
TABS,ioos:station:wmo:42043:1,2006-03-01T01:00:00Z,28.9818,-94.9186,1016.43,11111222 
TABS,ioos:station:wmo:42043:1,2006-03-01T01:30:00Z,28.9818,-94.9186,1016.67,11111222 
TABS,ioos:station:wmo:42043:1,2006-03-01T02:00:00Z,28.9818,-94.9186,1016.48,11111222 
TABS,ioos:station:wmo:42043:1,2006-03-01T02:30:00Z,28.9818,-94.9186,1016.73,11111222 
TABS,ioos:station:wmo:42043:1,2006-03-01T03:00:00Z,28.9818,-94.9186,1016.92,11111222 
TABS,ioos:station:wmo:42043:1,2006-03-01T03:30:00Z,28.9818,-94.9186,1016.99,11111222 
TABS,ioos:station:wmo:42043:1,2006-03-01T04:00:00Z,28.9818,-94.9186,1017.23,11111222 
TABS,ioos:station:wmo:42043:1,2006-03-01T04:30:00Z,28.9818,-94.9186,1016.78,11111222 
TABS,ioos:station:wmo:42043:1,2006-03-01T05:00:00Z,28.9818,-94.9186,1016.7,11111222 
TABS,ioos:station:wmo:42043:1,2006-03-01T05:30:00Z,28.9818,-94.9186,1016.65,11111222 
TABS,ioos:station:wmo:42043:1,2006-03-01T06:00:00Z,28.9818,-94.9186,1016.38,11111222 
TABS,ioos:station:wmo:42043:1,2006-03-01T06:30:00Z,28.9818,-94.9186,1016.3,11111222 
TABS,ioos:station:wmo:42043:1,2006-03-01T07:00:00Z,28.9818,-94.9186,1016.19,11111222 
TABS,ioos:station:wmo:42043:1,2006-03-01T07:30:00Z,28.9818,-94.9186,1015.95,11111222 
TABS,ioos:station:wmo:42043:1,2006-03-01T08:00:00Z,28.9818,-94.9186,1015.98,11111222 
TABS,ioos:station:wmo:42043:1,2006-03-01T08:30:00Z,28.9818,-94.9186,1015.76,11111222 
TABS,ioos:station:wmo:42043:1,2006-03-01T09:00:00Z,28.9818,-94.9186,1015.36,11111222 
TABS,ioos:station:wmo:42043:1,2006-03-01T09:30:00Z,28.9818,-94.9186,1015.16,11111222 
TABS,ioos:station:wmo:42043:1,2006-03-01T10:00:00Z,28.9818,-94.9186,1015.29,11111222 
TABS,ioos:station:wmo:42043:1,2006-03-01T10:30:00Z,28.9818,-94.9186,1015.09,11111222 
TABS,ioos:station:wmo:42043:1,2006-03-01T11:00:00Z,28.9818,-94.9186,1015.29,11111222 
TABS,ioos:station:wmo:42043:1,2006-03-01T11:30:00Z,28.9818,-94.9186,1015.4,11111222 
TABS,ioos:station:wmo:42043:1,2006-03-01T12:00:00Z,28.9818,-94.9186,1015.74,11111222 
TABS,ioos:station:wmo:42043:1,2006-03-01T12:30:00Z,28.9818,-94.9186,1015.8,11111222 
TABS,ioos:station:wmo:42043:1,2006-03-01T13:00:00Z,28.9818,-94.9186,1016.1,11111222 
TABS,ioos:station:wmo:42043:1,2006-03-01T13:30:00Z,28.9818,-94.9186,1016.55,11111222 
TABS,ioos:station:wmo:42043:1,2006-03-01T14:00:00Z,28.9818,-94.9186,1016.84,11111222 
TABS,ioos:station:wmo:42043:1,2006-03-01T14:30:00Z,28.9818,-94.9186,1016.98,11111222 
TABS,ioos:station:wmo:42043:1,2006-03-01T15:00:00Z,28.9818,-94.9186,1017.19,11111222 
TABS,ioos:station:wmo:42043:1,2006-03-01T15:30:00Z,28.9818,-94.9186,1017.41,11111222 
TABS,ioos:station:wmo:42043:1,2006-03-01T16:00:00Z,28.9818,-94.9186,1017.56,11111222 
TABS,ioos:station:wmo:42043:1,2006-03-01T16:30:00Z,28.9818,-94.9186,1017.49,11111222 
TABS,ioos:station:wmo:42043:1,2006-03-01T17:00:00Z,28.9818,-94.9186,1017.4,11111222 
TABS,ioos:station:wmo:42043:1,2006-03-01T17:30:00Z,28.9818,-94.9186,1017.21,11111222 
TABS,ioos:station:wmo:42043:1,2006-03-01T18:00:00Z,28.9818,-94.9186,1016.84,11111222 
TABS,ioos:station:wmo:42043:1,2006-03-01T18:30:00Z,28.9818,-94.9186,1016.49,11111222 
TABS,ioos:station:wmo:42043:1,2006-03-01T19:00:00Z,28.9818,-94.9186,1016.03,11111222 
TABS,ioos:station:wmo:42043:1,2006-03-01T19:30:00Z,28.9818,-94.9186,1015.64,11111222 
TABS,ioos:station:wmo:42043:1,2006-03-01T20:00:00Z,28.9818,-94.9186,1015.29,11111222 
TABS,ioos:station:wmo:42043:1,2006-03-01T20:30:00Z,28.9818,-94.9186,1014.97,11111222 
TABS,ioos:station:wmo:42043:1,2006-03-01T21:00:00Z,28.9818,-94.9186,1014.9,11111222 
TABS,ioos:station:wmo:42043:1,2006-03-01T21:30:00Z,28.9818,-94.9186,1014.63,11111222 
TABS,ioos:station:wmo:42043:1,2006-03-01T22:00:00Z,28.9818,-94.9186,1014.34,11111222 
TABS,ioos:station:wmo:42043:1,2006-03-01T22:30:00Z,28.9818,-94.9186,1014.3,11111222 
TABS,ioos:station:wmo:42043:1,2006-03-01T23:00:00Z,28.9818,-94.9186,1014.3,11111222 
TABS,ioos:station:wmo:42043:1,2006-03-01T23:30:00Z,28.9818,-94.9186,1014.45,11111222 
TABS,ioos:station:wmo:42043:1,2006-03-02T00:00:00Z,28.9818,-94.9186,1014.39,11111222 
TABS,ioos:station:wmo:42043:1,2006-03-02T00:30:00Z,28.9818,-94.9186,1014.36,11111222 
TABS,ioos:station:wmo:42043:1,2006-03-02T01:00:00Z,28.9818,-94.9186,1014.57,11111222 
TABS,ioos:station:wmo:42043:1,2006-03-02T01:30:00Z,28.9818,-94.9186,1014.87,11111222 
TABS,ioos:station:wmo:42043:1,2006-03-02T02:00:00Z,28.9818,-94.9186,1015.02,11111222 
TABS,ioos:station:wmo:42043:1,2006-03-02T02:30:00Z,28.9818,-94.9186,1015.09,11111222 
TABS,ioos:station:wmo:42043:1,2006-03-02T03:00:00Z,28.9818,-94.9186,1015.03,11111222 
TABS,ioos:station:wmo:42043:1,2006-03-02T03:30:00Z,28.9818,-94.9186,1015.05,11111222 
TABS,ioos:station:wmo:42043:1,2006-03-02T04:00:00Z,28.9818,-94.9186,1015.26,11111222 
TABS,ioos:station:wmo:42043:1,2006-03-02T04:30:00Z,28.9818,-94.9186,1015.26,11111222 
TABS,ioos:station:wmo:42043:1,2006-03-02T05:00:00Z,28.9818,-94.9186,1015.21,11111222 
TABS,ioos:station:wmo:42043:1,2006-03-02T05:30:00Z,28.9818,-94.9186,1014.72,11111222 
TABS,ioos:station:wmo:42043:1,2006-03-02T06:00:00Z,28.9818,-94.9186,1014.51,11111222 
TABS,ioos:station:wmo:42043:1,2006-03-02T06:30:00Z,28.9818,-94.9186,1014.2,11111222 
TABS,ioos:station:wmo:42043:1,2006-03-02T07:00:00Z,28.9818,-94.9186,1014.21,11111222 
TABS,ioos:station:wmo:42043:1,2006-03-02T07:30:00Z,28.9818,-94.9186,1014.25,11111222 
TABS,ioos:station:wmo:42043:1,2006-03-02T08:00:00Z,28.9818,-94.9186,1014.07,11111222 
TABS,ioos:station:wmo:42043:1,2006-03-02T08:30:00Z,28.9818,-94.9186,1013.69,11111222 
TABS,ioos:station:wmo:42043:1,2006-03-02T09:00:00Z,28.9818,-94.9186,1013.47,11111222 
TABS,ioos:station:wmo:42043:1,2006-03-02T09:30:00Z,28.9818,-94.9186,1013.31,11111222 
TABS,ioos:station:wmo:42043:1,2006-03-02T10:00:00Z,28.9818,-94.9186,1013.39,11111222 
TABS,ioos:station:wmo:42043:1,2006-03-02T10:30:00Z,28.9818,-94.9186,1013.67,11111222 
TABS,ioos:station:wmo:42043:1,2006-03-02T11:00:00Z,28.9818,-94.9186,1014.36,11111222 
TABS,ioos:station:wmo:42043:1,2006-03-02T11:30:00Z,28.9818,-94.9186,1014.65,11111222 
TABS,ioos:station:wmo:42043:1,2006-03-02T12:00:00Z,28.9818,-94.9186,1014.85,11111222 
TABS,ioos:station:wmo:42043:1,2006-03-02T12:30:00Z,28.9818,-94.9186,1014.74,11111222 
TABS,ioos:station:wmo:42043:1,2006-03-02T13:00:00Z,28.9818,-94.9186,1015.05,11111222 
TABS,ioos:station:wmo:42043:1,2006-03-02T13:30:00Z,28.9818,-94.9186,1015.52,11111222 
TABS,ioos:station:wmo:42043:1,2006-03-02T14:00:00Z,28.9818,-94.9186,1016.15,11111222 
TABS,ioos:station:wmo:42043:1,2006-03-02T14:30:00Z,28.9818,-94.9186,1016.95,11111222 
TABS,ioos:station:wmo:42043:1,2006-03-02T15:00:00Z,28.9818,-94.9186,1017.23,11111222 
TABS,ioos:station:wmo:42043:1,2006-03-02T15:30:00Z,28.9818,-94.9186,1017.41,11111222 
TABS,ioos:station:wmo:42043:1,2006-03-02T16:00:00Z,28.9818,-94.9186,1017.5,11111222 
TABS,ioos:station:wmo:42043:1,2006-03-02T16:30:00Z,28.9818,-94.9186,1017.34,11111222 
TABS,ioos:station:wmo:42043:1,2006-03-02T17:00:00Z,28.9818,-94.9186,1017.11,11111222 
TABS,ioos:station:wmo:42043:1,2006-03-02T17:30:00Z,28.9818,-94.9186,1016.93,11111222 
TABS,ioos:station:wmo:42043:1,2006-03-02T18:00:00Z,28.9818,-94.9186,1016.4,11111222 
TABS,ioos:station:wmo:42043:1,2006-03-02T18:30:00Z,28.9818,-94.9186,1016.24,11111222 
TABS,ioos:station:wmo:42043:1,2006-03-02T19:00:00Z,28.9818,-94.9186,1015.98,11111222 
TABS,ioos:station:wmo:42043:1,2006-03-02T19:30:00Z,28.9818,-94.9186,1015.7,11111222 
TABS,ioos:station:wmo:42043:1,2006-03-02T20:00:00Z,28.9818,-94.9186,1015.43,11111222 
TABS,ioos:station:wmo:42043:1,2006-03-02T20:30:00Z,28.9818,-94.9186,1015.05,11111222 
TABS,ioos:station:wmo:42043:1,2006-03-02T21:00:00Z,28.9818,-94.9186,1015.04,11111222 
TABS,ioos:station:wmo:42043:1,2006-03-02T21:30:00Z,28.9818,-94.9186,1015.0,11111222 
TABS,ioos:station:wmo:42043:1,2006-03-02T22:00:00Z,28.9818,-94.9186,1014.91,11111222 
TABS,ioos:station:wmo:42043:1,2006-03-02T22:30:00Z,28.9818,-94.9186,1015.2,11111222 
TABS,ioos:station:wmo:42043:1,2006-03-02T23:00:00Z,28.9818,-94.9186,1015.16,11111222 
TABS,ioos:station:wmo:42043:1,2006-03-02T23:30:00Z,28.9818,-94.9186,1015.26,11111222 
TABS,ioos:station:wmo:42043:1,2006-03-03T00:00:00Z,28.9818,-94.9186,1015.57,11111222 
TABS,ioos:station:wmo:42043:1,2006-03-03T00:30:00Z,28.9818,-94.9186,1015.74,11111222 
TABS,ioos:station:wmo:42043:1,2006-03-03T01:00:00Z,28.9818,-94.9186,1016.01,11111222 
TABS,ioos:station:wmo:42043:1,2006-03-03T01:30:00Z,28.9818,-94.9186,1016.19,11111222 
TABS,ioos:station:wmo:42043:1,2006-03-03T02:00:00Z,28.9818,-94.9186,1016.4,11111222 
TABS,ioos:station:wmo:42043:1,2006-03-03T02:30:00Z,28.9818,-94.9186,1016.91,11111222 
TABS,ioos:station:wmo:42043:1,2006-03-03T03:00:00Z,28.9818,-94.9186,1017.08,11111222 
TABS,ioos:station:wmo:42043:1,2006-03-03T03:30:00Z,28.9818,-94.9186,1017.25,11111222 
TABS,ioos:station:wmo:42043:1,2006-03-03T04:00:00Z,28.9818,-94.9186,1017.31,11111222 
TABS,ioos:station:wmo:42043:1,2006-03-03T04:30:00Z,28.9818,-94.9186,1017.23,11111222 
TABS,ioos:station:wmo:42043:1,2006-03-03T05:00:00Z,28.9818,-94.9186,1017.03,11111222 
TABS,ioos:station:wmo:42043:1,2006-03-03T05:30:00Z,28.9818,-94.9186,1016.85,11111222 
TABS,ioos:station:wmo:42043:1,2006-03-03T06:00:00Z,28.9818,-94.9186,1016.75,11111222 
TABS,ioos:station:wmo:42043:1,2006-03-03T06:30:00Z,28.9818,-94.9186,1017.23,11111222 
TABS,ioos:station:wmo:42043:1,2006-03-03T07:00:00Z,28.9818,-94.9186,1017.31,11111222 
TABS,ioos:station:wmo:42043:1,2006-03-03T07:30:00Z,28.9818,-94.9186,1017.63,11111222 
TABS,ioos:station:wmo:42043:1,2006-03-03T08:00:00Z,28.9818,-94.9186,1017.5,11111222 
TABS,ioos:station:wmo:42043:1,2006-03-03T08:30:00Z,28.9818,-94.9186,1017.63,11111222 
TABS,ioos:station:wmo:42043:1,2006-03-03T09:00:00Z,28.9818,-94.9186,1018.07,11111222 
TABS,ioos:station:wmo:42043:1,2006-03-03T09:30:00Z,28.9818,-94.9186,1018.33,11111222 
TABS,ioos:station:wmo:42043:1,2006-03-03T10:00:00Z,28.9818,-94.9186,1018.45,11111222 
TABS,ioos:station:wmo:42043:1,2006-03-03T10:30:00Z,28.9818,-94.9186,1018.63,11111222 
TABS,ioos:station:wmo:42043:1,2006-03-03T11:00:00Z,28.9818,-94.9186,1018.77,11111222 
TABS,ioos:station:wmo:42043:1,2006-03-03T11:30:00Z,28.9818,-94.9186,1019.31,11111222 
TABS,ioos:station:wmo:42043:1,2006-03-03T12:00:00Z,28.9818,-94.9186,1019.43,11111222 
TABS,ioos:station:wmo:42043:1,2006-03-03T12:30:00Z,28.9818,-94.9186,1019.99,11111222 
TABS,ioos:station:wmo:42043:1,2006-03-03T13:00:00Z,28.9818,-94.9186,1020.74,11111222 
TABS,ioos:station:wmo:42043:1,2006-03-03T13:30:00Z,28.9818,-94.9186,1021.07,11111222 
TABS,ioos:station:wmo:42043:1,2006-03-03T14:00:00Z,28.9818,-94.9186,1021.27,11111222 
TABS,ioos:station:wmo:42043:1,2006-03-03T14:30:00Z,28.9818,-94.9186,1021.67,11111222 
TABS,ioos:station:wmo:42043:1,2006-03-03T15:00:00Z,28.9818,-94.9186,1021.79,11111222 
TABS,ioos:station:wmo:42043:1,2006-03-03T15:30:00Z,28.9818,-94.9186,1022.13,11111222 
TABS,ioos:station:wmo:42043:1,2006-03-03T16:00:00Z,28.9818,-94.9186,1022.17,11111222 
TABS,ioos:station:wmo:42043:1,2006-03-03T16:30:00Z,28.9818,-94.9186,1022.3,11111222 
TABS,ioos:station:wmo:42043:1,2006-03-03T17:00:00Z,28.9818,-94.9186,1022.55,11111222 
TABS,ioos:station:wmo:42043:1,2006-03-03T17:30:00Z,28.9818,-94.9186,1022.74,11111222 
TABS,ioos:station:wmo:42043:1,2006-03-03T18:00:00Z,28.9818,-94.9186,1022.57,11111222 
TABS,ioos:station:wmo:42043:1,2006-03-03T18:30:00Z,28.9818,-94.9186,1022.34,11111222 
TABS,ioos:station:wmo:42043:1,2006-03-03T19:00:00Z,28.9818,-94.9186,1022.13,11111222 
TABS,ioos:station:wmo:42043:1,2006-03-03T19:30:00Z,28.9818,-94.9186,1021.41,11111222 
TABS,ioos:station:wmo:42043:1,2006-03-03T20:00:00Z,28.9818,-94.9186,1021.01,11111222 
TABS,ioos:station:wmo:42043:1,2006-03-03T20:30:00Z,28.9818,-94.9186,1021.2,11111222 
TABS,ioos:station:wmo:42043:1,2006-03-03T21:00:00Z,28.9818,-94.9186,1020.98,11111222 
TABS,ioos:station:wmo:42043:1,2006-03-03T21:30:00Z,28.9818,-94.9186,1020.83,11111222 
TABS,ioos:station:wmo:42043:1,2006-03-03T22:00:00Z,28.9818,-94.9186,1020.55,11111222 
TABS,ioos:station:wmo:42043:1,2006-03-03T22:30:00Z,28.9818,-94.9186,1020.45,11111222 
TABS,ioos:station:wmo:42043:1,2006-03-03T23:00:00Z,28.9818,-94.9186,1020.45,11111222 
TABS,ioos:station:wmo:42043:1,2006-03-03T23:30:00Z,28.9818,-94.9186,1020.55,11111222 
TABS,ioos:station:wmo:42043:1,2006-03-04T00:00:00Z,28.9818,-94.9186,1020.59,11111222 
TABS,ioos:station:wmo:42043:1,2006-03-04T00:30:00Z,28.9818,-94.9186,1020.67,11111222 
TABS,ioos:station:wmo:42043:1,2006-03-04T01:00:00Z,28.9818,-94.9186,1020.91,11111222 
TABS,ioos:station:wmo:42043:1,2006-03-04T01:30:00Z,28.9818,-94.9186,1021.12,11111222 
TABS,ioos:station:wmo:42043:1,2006-03-04T02:00:00Z,28.9818,-94.9186,1021.5,11111222 
TABS,ioos:station:wmo:42043:1,2006-03-04T02:30:00Z,28.9818,-94.9186,1021.23,11111222 
TABS,ioos:station:wmo:42043:1,2006-03-04T03:00:00Z,28.9818,-94.9186,1021.63,11111222 
TABS,ioos:station:wmo:42043:1,2006-03-04T03:30:00Z,28.9818,-94.9186,1021.82,11111222 
TABS,ioos:station:wmo:42043:1,2006-03-04T04:00:00Z,28.9818,-94.9186,1022.05,11111222 
TABS,ioos:station:wmo:42043:1,2006-03-04T04:30:00Z,28.9818,-94.9186,1022.03,11111222 
TABS,ioos:station:wmo:42043:1,2006-03-04T05:00:00Z,28.9818,-94.9186,1022.27,11111222 
TABS,ioos:station:wmo:42043:1,2006-03-04T05:30:00Z,28.9818,-94.9186,1022.4,11111222 
TABS,ioos:station:wmo:42043:1,2006-03-04T06:00:00Z,28.9818,-94.9186,1022.49,11111222 
TABS,ioos:station:wmo:42043:1,2006-03-04T06:30:00Z,28.9818,-94.9186,1022.29,11111222 
TABS,ioos:station:wmo:42043:1,2006-03-04T07:00:00Z,28.9818,-94.9186,1022.45,11111222 
TABS,ioos:station:wmo:42043:1,2006-03-04T07:30:00Z,28.9818,-94.9186,1022.38,11111222 
TABS,ioos:station:wmo:42043:1,2006-03-04T08:00:00Z,28.9818,-94.9186,1022.29,11111222 
TABS,ioos:station:wmo:42043:1,2006-03-04T08:30:00Z,28.9818,-94.9186,1021.84,11111222 
TABS,ioos:station:wmo:42043:1,2006-03-04T09:00:00Z,28.9818,-94.9186,1021.5,11111222 
TABS,ioos:station:wmo:42043:1,2006-03-04T09:30:00Z,28.9818,-94.9186,1021.5,11111222 
TABS,ioos:station:wmo:42043:1,2006-03-04T10:00:00Z,28.9818,-94.9186,1021.51,11111222 
TABS,ioos:station:wmo:42043:1,2006-03-04T10:30:00Z,28.9818,-94.9186,1021.52,11111222 
TABS,ioos:station:wmo:42043:1,2006-03-04T11:00:00Z,28.9818,-94.9186,1021.6,11111222 
TABS,ioos:station:wmo:42043:1,2006-03-04T11:30:00Z,28.9818,-94.9186,1021.64,11111222 
TABS,ioos:station:wmo:42043:1,2006-03-04T12:00:00Z,28.9818,-94.9186,1021.94,11111222 
TABS,ioos:station:wmo:42043:1,2006-03-04T12:30:00Z,28.9818,-94.9186,1022.24,11111222 
TABS,ioos:station:wmo:42043:1,2006-03-04T13:00:00Z,28.9818,-94.9186,1022.47,11111222 
TABS,ioos:station:wmo:42043:1,2006-03-04T13:30:00Z,28.9818,-94.9186,1022.6,11111222 
TABS,ioos:station:wmo:42043:1,2006-03-04T14:00:00Z,28.9818,-94.9186,1023.01,11111222 
TABS,ioos:station:wmo:42043:1,2006-03-04T14:30:00Z,28.9818,-94.9186,1023.15,11111222 
TABS,ioos:station:wmo:42043:1,2006-03-04T15:00:00Z,28.9818,-94.9186,1023.38,11111222 
TABS,ioos:station:wmo:42043:1,2006-03-04T15:30:00Z,28.9818,-94.9186,1023.79,11111222 
TABS,ioos:station:wmo:42043:1,2006-03-04T16:00:00Z,28.9818,-94.9186,1023.82,11111222 
TABS,ioos:station:wmo:42043:1,2006-03-04T16:30:00Z,28.9818,-94.9186,1024.0,11111222 
TABS,ioos:station:wmo:42043:1,2006-03-04T17:00:00Z,28.9818,-94.9186,1024.24,11111222 
TABS,ioos:station:wmo:42043:1,2006-03-04T17:30:00Z,28.9818,-94.9186,1024.42,11111222 
TABS,ioos:station:wmo:42043:1,2006-03-04T18:00:00Z,28.9818,-94.9186,1024.41,11111222 
TABS,ioos:station:wmo:42043:1,2006-03-04T18:30:00Z,28.9818,-94.9186,1023.97,11111222 
TABS,ioos:station:wmo:42043:1,2006-03-04T19:00:00Z,28.9818,-94.9186,1023.61,11111222 
TABS,ioos:station:wmo:42043:1,2006-03-04T19:30:00Z,28.9818,-94.9186,1023.34,11111222 
TABS,ioos:station:wmo:42043:1,2006-03-04T20:00:00Z,28.9818,-94.9186,1022.97,11111222 
TABS,ioos:station:wmo:42043:1,2006-03-04T20:30:00Z,28.9818,-94.9186,1022.78,11111222 
TABS,ioos:station:wmo:42043:1,2006-03-04T21:00:00Z,28.9818,-94.9186,1022.44,11111222 
TABS,ioos:station:wmo:42043:1,2006-03-04T21:30:00Z,28.9818,-94.9186,1022.32,11111222 
TABS,ioos:station:wmo:42043:1,2006-03-04T22:00:00Z,28.9818,-94.9186,1022.01,11111222 
TABS,ioos:station:wmo:42043:1,2006-03-04T22:30:00Z,28.9818,-94.9186,1021.87,11111222 
TABS,ioos:station:wmo:42043:1,2006-03-04T23:00:00Z,28.9818,-94.9186,1021.65,11111222 
TABS,ioos:station:wmo:42043:1,2006-03-04T23:30:00Z,28.9818,-94.9186,1021.68,11111222 
TABS,ioos:station:wmo:42043:1,2006-03-05T00:00:00Z,28.9818,-94.9186,1021.63,11111222 
TABS,ioos:station:wmo:42043:1,2006-03-05T00:30:00Z,28.9818,-94.9186,1021.84,11111222 
TABS,ioos:station:wmo:42043:1,2006-03-05T01:00:00Z,28.9818,-94.9186,1021.93,11111222 
TABS,ioos:station:wmo:42043:1,2006-03-05T01:30:00Z,28.9818,-94.9186,1022.36,11111222 
TABS,ioos:station:wmo:42043:1,2006-03-05T02:00:00Z,28.9818,-94.9186,1022.82,11111222 
TABS,ioos:station:wmo:42043:1,2006-03-05T02:30:00Z,28.9818,-94.9186,1023.0,11111222 
TABS,ioos:station:wmo:42043:1,2006-03-05T03:00:00Z,28.9818,-94.9186,1023.05,11111222 
TABS,ioos:station:wmo:42043:1,2006-03-05T03:30:00Z,28.9818,-94.9186,1022.9,11111222 
TABS,ioos:station:wmo:42043:1,2006-03-05T04:00:00Z,28.9818,-94.9186,1022.71,11111222 
TABS,ioos:station:wmo:42043:1,2006-03-05T04:30:00Z,28.9818,-94.9186,1022.49,11111222 
TABS,ioos:station:wmo:42043:1,2006-03-05T05:00:00Z,28.9818,-94.9186,1022.21,11111222 
TABS,ioos:station:wmo:42043:1,2006-03-05T05:30:00Z,28.9818,-94.9186,1022.04,11111222 
TABS,ioos:station:wmo:42043:1,2006-03-05T06:00:00Z,28.9818,-94.9186,1021.88,11111222 
TABS,ioos:station:wmo:42043:1,2006-03-05T06:30:00Z,28.9818,-94.9186,1021.91,11111222 
TABS,ioos:station:wmo:42043:1,2006-03-05T07:00:00Z,28.9818,-94.9186,1021.84,11111222 
TABS,ioos:station:wmo:42043:1,2006-03-05T07:30:00Z,28.9818,-94.9186,1021.81,11111222 
TABS,ioos:station:wmo:42043:1,2006-03-05T08:00:00Z,28.9818,-94.9186,1021.64,11111222 
TABS,ioos:station:wmo:42043:1,2006-03-05T08:30:00Z,28.9818,-94.9186,1021.72,11111222 
TABS,ioos:station:wmo:42043:1,2006-03-05T09:00:00Z,28.9818,-94.9186,1021.57,11111222 
TABS,ioos:station:wmo:42043:1,2006-03-05T09:30:00Z,28.9818,-94.9186,1021.56,11111222 
TABS,ioos:station:wmo:42043:1,2006-03-05T10:00:00Z,28.9818,-94.9186,1021.43,11111222 
TABS,ioos:station:wmo:42043:1,2006-03-05T10:30:00Z,28.9818,-94.9186,1021.75,11111222 
TABS,ioos:station:wmo:42043:1,2006-03-05T11:00:00Z,28.9818,-94.9186,1021.84,11111222 
TABS,ioos:station:wmo:42043:1,2006-03-05T11:30:00Z,28.9818,-94.9186,1021.95,11111222 
TABS,ioos:station:wmo:42043:1,2006-03-05T12:00:00Z,28.9818,-94.9186,1022.03,11111222 
TABS,ioos:station:wmo:42043:1,2006-03-05T12:30:00Z,28.9818,-94.9186,1022.06,11111222 
TABS,ioos:station:wmo:42043:1,2006-03-05T13:00:00Z,28.9818,-94.9186,1022.5,11111222 
TABS,ioos:station:wmo:42043:1,2006-03-05T13:30:00Z,28.9818,-94.9186,1022.7,11111222 
TABS,ioos:station:wmo:42043:1,2006-03-05T14:00:00Z,28.9818,-94.9186,1022.88,11111222 
TABS,ioos:station:wmo:42043:1,2006-03-05T14:30:00Z,28.9818,-94.9186,1022.93,11111222 
TABS,ioos:station:wmo:42043:1,2006-03-05T15:00:00Z,28.9818,-94.9186,1023.14,11111222 
TABS,ioos:station:wmo:42043:1,2006-03-05T15:30:00Z,28.9818,-94.9186,1023.29,11111222 
TABS,ioos:station:wmo:42043:1,2006-03-05T16:00:00Z,28.9818,-94.9186,1023.5,11111222 
TABS,ioos:station:wmo:42043:1,2006-03-05T16:30:00Z,28.9818,-94.9186,1023.84,11111222 
TABS,ioos:station:wmo:42043:1,2006-03-05T17:00:00Z,28.9818,-94.9186,1023.92,11111222 
TABS,ioos:station:wmo:42043:1,2006-03-05T17:30:00Z,28.9818,-94.9186,1023.4,11111222 
TABS,ioos:station:wmo:42043:1,2006-03-05T18:00:00Z,28.9818,-94.9186,1023.14,11111222 
TABS,ioos:station:wmo:42043:1,2006-03-05T18:30:00Z,28.9818,-94.9186,1022.89,11111222 
TABS,ioos:station:wmo:42043:1,2006-03-05T19:00:00Z,28.9818,-94.9186,1022.84,11111222 
TABS,ioos:station:wmo:42043:1,2006-03-05T19:30:00Z,28.9818,-94.9186,1022.28,11111222 
TABS,ioos:station:wmo:42043:1,2006-03-05T20:00:00Z,28.9818,-94.9186,1022.08,11111222 
TABS,ioos:station:wmo:42043:1,2006-03-05T20:30:00Z,28.9818,-94.9186,1021.91,11111222 
TABS,ioos:station:wmo:42043:1,2006-03-05T21:00:00Z,28.9818,-94.9186,1022.04,11111222 
TABS,ioos:station:wmo:42043:1,2006-03-05T21:30:00Z,28.9818,-94.9186,1021.95,11111222 
TABS,ioos:station:wmo:42043:1,2006-03-05T22:00:00Z,28.9818,-94.9186,1021.77,11111222 
TABS,ioos:station:wmo:42043:1,2006-03-05T22:30:00Z,28.9818,-94.9186,1021.73,11111222 
TABS,ioos:station:wmo:42043:1,2006-03-05T23:00:00Z,28.9818,-94.9186,1021.61,11111222 
TABS,ioos:station:wmo:42043:1,2006-03-05T23:30:00Z,28.9818,-94.9186,1021.48,11111222 
TABS,ioos:station:wmo:42043:1,2006-03-06T00:00:00Z,28.9818,-94.9186,1021.65,11111222 
TABS,ioos:station:wmo:42043:1,2006-03-06T00:30:00Z,28.9818,-94.9186,1021.79,11111222 
TABS,ioos:station:wmo:42043:1,2006-03-06T01:00:00Z,28.9818,-94.9186,1021.77,11111222 
TABS,ioos:station:wmo:42043:1,2006-03-06T01:30:00Z,28.9818,-94.9186,1021.98,11111222 
TABS,ioos:station:wmo:42043:1,2006-03-06T02:00:00Z,28.9818,-94.9186,1022.15,11111222 
TABS,ioos:station:wmo:42043:1,2006-03-06T02:30:00Z,28.9818,-94.9186,1022.23,11111222 
TABS,ioos:station:wmo:42043:1,2006-03-06T03:00:00Z,28.9818,-94.9186,1022.21,11111222 
TABS,ioos:station:wmo:42043:1,2006-03-06T03:30:00Z,28.9818,-94.9186,1022.27,11111222 
TABS,ioos:station:wmo:42043:1,2006-03-06T04:00:00Z,28.9818,-94.9186,1022.19,11111222 
TABS,ioos:station:wmo:42043:1,2006-03-06T04:30:00Z,28.9818,-94.9186,1022.11,11111222 
TABS,ioos:station:wmo:42043:1,2006-03-06T05:00:00Z,28.9818,-94.9186,1021.97,11111222 
TABS,ioos:station:wmo:42043:1,2006-03-06T05:30:00Z,28.9818,-94.9186,1021.79,11111222 
TABS,ioos:station:wmo:42043:1,2006-03-06T06:00:00Z,28.9818,-94.9186,1021.89,11111222 
TABS,ioos:station:wmo:42043:1,2006-03-06T06:30:00Z,28.9818,-94.9186,1021.8,11111222 
TABS,ioos:station:wmo:42043:1,2006-03-06T07:00:00Z,28.9818,-94.9186,1021.77,11111222 
TABS,ioos:station:wmo:42043:1,2006-03-06T07:30:00Z,28.9818,-94.9186,1021.65,11111222 
TABS,ioos:station:wmo:42043:1,2006-03-06T08:00:00Z,28.9818,-94.9186,1021.4,11111222 
TABS,ioos:station:wmo:42043:1,2006-03-06T08:30:00Z,28.9818,-94.9186,1021.16,11111222 
TABS,ioos:station:wmo:42043:1,2006-03-06T09:00:00Z,28.9818,-94.9186,1020.96,11111222 
TABS,ioos:station:wmo:42043:1,2006-03-06T09:30:00Z,28.9818,-94.9186,1020.99,11111222 
TABS,ioos:station:wmo:42043:1,2006-03-06T10:00:00Z,28.9818,-94.9186,1021.11,11111222 
TABS,ioos:station:wmo:42043:1,2006-03-06T10:30:00Z,28.9818,-94.9186,1021.26,11111222 
TABS,ioos:station:wmo:42043:1,2006-03-06T11:00:00Z,28.9818,-94.9186,1021.54,11111222 
TABS,ioos:station:wmo:42043:1,2006-03-06T11:30:00Z,28.9818,-94.9186,1021.74,11111222 
TABS,ioos:station:wmo:42043:1,2006-03-06T12:00:00Z,28.9818,-94.9186,1022.05,11111222 
TABS,ioos:station:wmo:42043:1,2006-03-06T12:30:00Z,28.9818,-94.9186,1022.19,11111222 
TABS,ioos:station:wmo:42043:1,2006-03-06T13:00:00Z,28.9818,-94.9186,1022.54,11111222 
TABS,ioos:station:wmo:42043:1,2006-03-06T13:30:00Z,28.9818,-94.9186,1022.69,11111222 
TABS,ioos:station:wmo:42043:1,2006-03-06T14:00:00Z,28.9818,-94.9186,1023.01,11111222 
TABS,ioos:station:wmo:42043:1,2006-03-06T14:30:00Z,28.9818,-94.9186,1023.41,11111222 
TABS,ioos:station:wmo:42043:1,2006-03-06T15:00:00Z,28.9818,-94.9186,1023.61,11111222 
TABS,ioos:station:wmo:42043:1,2006-03-06T15:30:00Z,28.9818,-94.9186,1023.81,11111222 
TABS,ioos:station:wmo:42043:1,2006-03-06T16:00:00Z,28.9818,-94.9186,1023.8,11111222 
TABS,ioos:station:wmo:42043:1,2006-03-06T16:30:00Z,28.9818,-94.9186,1023.89,11111222 
TABS,ioos:station:wmo:42043:1,2006-03-06T17:00:00Z,28.9818,-94.9186,1023.93,11111222 
TABS,ioos:station:wmo:42043:1,2006-03-06T17:30:00Z,28.9818,-94.9186,1023.68,11111222 
TABS,ioos:station:wmo:42043:1,2006-03-06T18:00:00Z,28.9818,-94.9186,1023.53,11111222 
TABS,ioos:station:wmo:42043:1,2006-03-06T18:30:00Z,28.9818,-94.9186,1023.16,11111222 